STARLINK-4793 (53867 NORAD) Tracking and Keplerian Element Data

This shows tracking and keplerian element data for the satellite.

Feedback or suggestion? Click here.




ElementValue
Catalog53867
NameSTARLINK-4793
Epoch Orbit1053
Epoch Day325.33334491
Epoch Year2022
RAAN305.5477
Inclination53.2139
Eccentricity0.0004269
Argument of Perigee5.7852
Mean Anonmoly68.4843
Mean Motion15.73154026
Decay Rate0.0004192
L11 53867U 22114BB 22325.33334491 .00041920 00000+0 30209-3 0 9995
L22 53867 53.2139 305.5477 0004269 5.7852 68.4843 15.73154026 10539



Live tracking and technical data element details for STARLINK-4793 (NORAD 53867). STARLINK-4793 can be tracked NOW for your location showing map with azimuth and elevation plus other details from your city location.







IsCatalogInMostPopularTable: catalog: 53867, numindb: -1

Insert: records affected: 1


GetName: 53867 STARLINK-4793

Hit Count: inserted at: Thu, 08 Dec 2022 09:43:53 GMT